Location: Caramacate
(10.0289°N, 66.7587°W)
Time: 20:30:32
(UTC+00:00)

Delta 2 Rocket - Pass Details

Date: 05 August 2024
Orbit: 890 x 1677 km, 26.4° (Epoch: 07 September)

Event Time Altitude Azimuth Distance (km) Brightness Sun altitude
Rises 23:24:15 0° 239° (WSW) 3,567 7.6 -9.2°
Reaches altitude 10° 23:26:42 10° 237° (WSW) 2,680 6.9 -9.8°
Maximum altitude 23:33:09 75° 152° (SSE) 1,095 4.2 -11.3°
Drops below altitude 10° 23:40:52 10° 68° (ENE) 3,176 6.2 -13.0°
Enters shadow 23:42:29 - 67° (ENE) 3,736 6.6 -13.4°
